User: anonymous   Login
Location: Unspecified
(0.0000°N, 0.0000°E)
Time: 18:48:29
(UTC+00:00)
Language:

SOMP - Orbit

View from above orbital plane
View from above orbital plane
View from above satellite
View from above satellite

Ground track
Ground track

The orbit data is extracted from the following two-line orbital elements,

1 39135U 13015F   17145.82712960 +.00001168 +00000-0 +71044-4 0  9990
2 39135 064.8695 307.2153 0031614 286.9128 072.8532 15.15503852225532
Epoch (UTC): 25 May 2017 19:51:03
Eccentricity: 0.0031614
inclination: 64.8695°
perigee height: 497 km
apogee height: 541 km
right ascension of ascending node: 307.2153°
argument of perigee: 286.9128°
revolutions per day: 15.15503852
mean anomaly at epoch: 72.8532°
orbit number at epoch: 22553

The dashed part of the orbit path shows where the satellite is in the earth's shadow,  

DLR